Location: Nashville
(36.1660°N, 86.7840°W)
Time: 14:57:14
(UTC-06:00)

Vanguard 1 - Visible Passes

Search period start: 25 January 2022 00:00
Search period end: 04 February 2022 00:00
Orbit: 652 x 3830 km, 34.2° (Epoch: 24 January)

Date Brightness Start Highest point End Pass type
(mag) Time Alt. Az. Time Alt. Az. Time Alt. Az.
25 Jan 14.0 06:05:50 10° S 06:12:29 14° SSE 06:17:41 10° ESE visible
26 Jan 13.7 06:23:58 10° SSW 06:33:46 21° SSE 06:40:33 10° ESE visible
28 Jan 14.1 04:45:48 10° S 04:52:56 14° SSE 04:58:46 10° ESE visible
29 Jan 13.8 05:03:02 10° S 05:14:17 20° SSE 05:22:25 10° ESE visible
30 Jan 13.5 05:21:49 10° SSW 05:35:35 27° SSE 05:44:41 10° E visible
31 Jan 14.2 03:27:03 10° SSE 03:32:46 12° SE 03:37:51 10° SE visible
31 Jan 13.2 05:41:25 10° SSW 05:56:50 34° SSE 06:06:20 10° E visible
01 Feb 14.0 03:42:31 10° S 03:54:09 18° SE 04:03:14 10° ESE visible
01 Feb 12.9 06:01:35 10° SW 06:18:03 43° SSE 06:27:39 10° E visible
02 Feb 13.7 04:00:33 10° S 04:15:27 25° SE 04:26:09 10° E visible
02 Feb 12.6 06:22:11 10° SW 06:39:14 51° SSE 06:48:44 10° E visible
03 Feb 13.4 04:19:38 10° SSW 04:36:43 32° SSE 04:48:12 10° E visible
